Regional Weather Roundup
Issued by NWS

Home | Current Version | Previous Version | Text Only | Print | Product List | Glossary On
Versions: 1 2 3 4 5 6 7 8 9 10 11 12 13 14 15 16 17 18 19 20 21 22 23 24 25 26 27 28 29 30 31 32 33 34 35 36 37 38 39 40 41 42 43 44 45 46 47 48 49 50
000
ASUS43 KBIS 272110
RWRND

NORTH DAKOTA REGIONAL WEATHER ROUNDUP
NATIONAL WEATHER SERVICE BISMARCK ND
300 PM CST FRI FEB 27 2015

NOTE: "FAIR" INDICATES FEW OR NO CLOUDS BELOW 12,000 FEET WITH NO
SIGNIFICANT WEATHER AND/OR OBSTRUCTIONS TO VISIBILITY.


NDZ001>003-009>011-017-272200-
NORTHWEST NORTH DAKOTA

CITY           SKY/WX    TMP DP  RH WIND       PRES   REMARKS
WILLISTON      SUNNY     24   4  42 S10       30.09F WCI  14
MINOT          SUNNY     16   1  51 S13       30.19F WCI   2
MINOT AFB      SUNNY     14   4  65 S10       30.19F WCI   1
$$

NDZ018>021-031>035-040>046-272200-
SOUTHWEST NORTH DAKOTA

CITY           SKY/WX    TMP DP  RH WIND       PRES   REMARKS
BISMARCK       SUNNY     19   3  49 S13G22    30.26F WCI   6
DICKINSON      SUNNY     25   5  42 S21       30.05F WCI  11
GARRISON         N/A     19   5  54 S13       30.17F WCI   6
HETTINGER ARPT SUNNY     25   4  40 S17G25    30.08F WCI  12
$$

NDZ004>008-012>016-024-026-027-054-272200-
NORTHEAST NORTH DAKOTA

CITY           SKY/WX    TMP DP  RH WIND       PRES   REMARKS
GRAND FORKS    MOSUNNY   17   3  54 SW9       30.38F WCI   6
GRND FRKS AFB  SUNNY     19   2  47 W10       30.37F WCI   7
DEVILS LAKE    SUNNY     12   1  62 SW12      30.29F WCI  -2
$$

NDZ022-023-025-028>030-036>039-047>053-272200-
SOUTHEAST NORTH DAKOTA

CITY           SKY/WX    TMP DP  RH WIND       PRES   REMARKS
FARGO          SUNNY     16   0  49 SW13      30.43F WCI   2
JAMESTOWN      SUNNY     15   0  51 SW14      30.32F WCI   0
$$




USA.gov is the U.S. government's official web portal to all federal, state and local government web resources and services.